Weather Roundup
Issued by NWS Springfield, MO

Home | Current Version | Previous Version | Text Only | Print | Product List | Glossary On
Versions: 1 2 3 4 5 6 7 8 9 10 11 12 13 14 15 16 17 18 19 20 21 22 23 24 25 26 27 28 29 30 31 32 33 34 35 36 37 38 39 40 41 42 43 44 45 46 47 48 49 50
000
NZUS99 KSGF 080657
HRRSGF

HOURLY WEATHER
NATIONAL WEATHER SERVICE SPRINGFIELD MO
100 AM CST MON FEB 08 2016

......SGF CWA......

CITY           SKY/WX    TMP DP  RH WIND       PRES   REMARKS
SPRINGFIELD    CLOUDY    39  22  50 NW10      29.99F WCI  32
JOPLIN         CLEAR     37  21  52 W15       30.07F WCI  28
WEST PLAINS    CLEAR     39  18  42 NW15G28   29.93F WCI  31
ROLLA          CLOUDY    36  26  67 W20       29.86F WCI  25

......SURROUNDING SGF CWA......

CITY           SKY/WX    TMP DP  RH WIND       PRES   REMARKS
CHANUTE        CLEAR     36  21  54 NW13      30.10S WCI  27
PARSONS        CLEAR     38  21  50 W14       30.12F WCI  30
COFFEYVILLE    CLEAR     38  20  48 W14       30.14S WCI  30
EMPORIA        CLEAR     36  18  48 NW18G32   30.10F WCI  26
HARRISON AR    CLEAR     39  19  44 NW12      30.01F WCI  32

......KANSAS AND MISSOURI......

CITY           SKY/WX    TMP DP  RH WIND       PRES   REMARKS
KANSAS CTY INT CLOUDY    36  21  54 NW31G43   29.98S WCI  23
COLUMBIA       LGT SNOW  33  31  92 W15       29.88F FOG     WCI  23
SEDALIA        CLOUDY    37  24  59 NW18G31   29.95S WCI  27
ST JOSEPH      CLOUDY    34  22  61 NW38G52   30.00R WCI  19
ST LOUIS       LGT RAIN  40  29  64 W20G25    29.83F WCI  30
KIRKSVILLE     CLOUDY    32  19  59 NW16G24   29.84S WCI  21
WICHITA        CLEAR     38  18  44 NW23G31   30.20S WCI  27
TOPEKA         CLOUDY    38  20  48 NW15G24   30.07R WCI  29
OLATHE         FLURRIES  36  25  64 NW20G36   30.00F WCI  25

......TENNESSEE......

CITY           SKY/WX    TMP DP  RH WIND       PRES   REMARKS
MEMPHIS        NOT AVBL
NASHVILLE      MOCLDY    48  26  42 W9        29.85F

......ARKANSAS.......

CITY           SKY/WX    TMP DP  RH WIND       PRES   REMARKS
FAYETTEVILLE   CLEAR     39  19  44 NW10      30.09S WCI  32
FT SMITH       CLEAR     45  20  36 W15       30.12S
LITTLE ROCK    CLOUDY    51  24  34 W14G21    30.03F

......OKLAHOMA.......

CITY           SKY/WX    TMP DP  RH WIND       PRES   REMARKS
TULSA          PTCLDY    42  22  44 NW16      30.17F
PONCA CITY     CLEAR     36  21  54 NW12G20   30.23S WCI  28
MCALESTER      PTCLDY    45  19  35 NW9       30.21F
OKLAHOMA CITY  CLOUDY    43  16  33 NW18      30.29R

......IOWA............

CITY           SKY/WX    TMP DP  RH WIND       PRES   REMARKS
DES MOINES     NOT AVBL
QUAD CITIES    FLURRIES  34  31  88 W13       29.70F WCI  25

......ILLINOIS........

CITY           SKY/WX    TMP DP  RH WIND       PRES   REMARKS
QUINCY         NOT AVBL
CHICAGO        CLEAR     31  26  82 W7        29.65F WCI  24



USA.gov is the U.S. government's official web portal to all federal, state and local government web resources and services.